Location: Aranbee
(34.0885°N, 118.2342°W)
Time: 09:26:51
(UTC+00:00)

Courier 1B Rocket - Pass Details

Date: 30 November 2020
Orbit: 920 x 1202 km, 28.2° (Epoch: 27 January)

Event Time Altitude Azimuth Distance (km) Brightness Sun altitude
Rises 17:21:58 0° 270° (W) 4,062 7.9 25.0°
Reaches altitude 10° 17:25:08 10° 262° (W) 3,071 7.4 25.3°
Maximum altitude 17:31:48 34° 201° (SSW) 1,759 7.1 26.1°
Drops below altitude 10° 17:38:07 10° 139° (SE) 2,898 9.2 26.8°
Sets 17:41:01 0° 130° (SE) 3,805 9.2 27.2°
